Date String (YYYY-MM-DD hh:mm:ss) UTC,Instrument flags,Ambient pressure (hPa),Sample flow (lpm),Bypass flow (lpm),Sample temperature (°C),Ambient temperature (°C),ASC tube jacket temperature (°C),LED temperature (°C),Box temperature (°C),Sample RH (%),Span deviation,Mass concentration (μg/m³),Mass concentration (μg/m³),Mass concentration (μg/m³)
DateTimeUTC,F1_M11,P_M11,Q1_M11,Q2_M11,T1_M11,T2_M11,T3_M11,T4_M11,T5_M11,U1_M11,ZSPAN_M11,X2_M11,X0_M11,X1_M11
2021-10-21 03:00:00,,0830.9,4.99,0.00,27.2,26.5,00.0,36.3,29.0,12.5,0000.0,0004.06,0016.05,0003.13
2021-10-21 03:01:00,,0830.8,5.00,0.00,27.2,26.5,00.0,36.3,29.0,12.4,0000.0,0004.01,0014.94,0003.12
2021-10-21 03:02:00,,0830.8,5.01,0.00,27.2,26.5,00.0,36.3,29.0,12.4,0000.0,0003.98,0014.00,0003.12
2021-10-21 03:03:00,,0830.9,5.01,0.00,27.2,26.5,00.0,36.3,29.0,12.4,0000.0,0003.94,0012.78,0003.11
2021-10-21 03:04:00,,0830.9,4.99,0.00,27.2,26.5,00.0,36.3,29.0,12.4,0000.0,0003.94,0012.69,0003.11
2021-10-21 03:05:00,,0830.9,5.00,0.00,27.2,26.5,00.0,36.3,29.0,12.4,0000.0,0003.95,0012.37,0003.12
2021-10-21 03:06:00,,0830.9,5.00,0.00,27.2,26.5,00.0,36.3,29.0,12.4,0000.0,0003.97,0011.96,0003.13
2021-10-21 03:07:00,,0830.9,4.99,0.00,27.2,26.5,00.0,36.3,29.0,12.4,0000.0,0004.02,0012.52,0003.15
2021-10-21 03:08:00,,0831.0,5.02,0.00,27.2,26.5,00.0,36.3,29.0,12.5,0000.0,0004.06,0012.73,0003.17
2021-10-21 03:09:00,,0831.0,5.01,0.00,27.2,26.5,00.0,36.3,29.0,12.5,0000.0,0004.08,0013.37,0003.18
2021-10-21 03:10:00,,0831.0,5.00,0.00,27.2,26.5,00.0,36.3,29.0,12.5,0000.0,0004.09,0014.66,0003.19
2021-10-21 03:11:00,,0831.0,4.99,0.00,27.2,26.5,00.0,36.3,29.0,12.5,0000.0,0004.08,0014.08,0003.20
2021-10-21 03:12:00,,0831.0,5.01,0.00,27.2,26.5,00.0,36.3,29.0,12.5,0000.0,0004.11,0014.14,0003.22
2021-10-21 03:13:00,,0831.1,5.00,0.00,27.2,26.5,00.0,36.3,29.1,12.5,0000.0,0004.09,0014.37,0003.23
2021-10-21 03:14:00,,0831.1,5.00,0.00,27.2,26.5,00.0,36.3,29.0,12.5,0000.0,0004.11,0014.87,0003.23
2021-10-21 03:15:00,,0831.0,4.99,0.00,27.2,26.5,00.0,36.3,29.0,12.5,0000.0,0004.14,0014.68,0003.23
2021-10-21 03:16:00,,0831.1,5.01,0.00,27.2,26.5,00.0,36.3,29.0,12.5,0000.0,0004.12,0014.73,0003.24
2021-10-21 03:17:00,,0831.0,5.00,0.00,27.2,26.5,00.0,36.3,29.0,12.5,0000.0,0004.08,0014.46,0003.23
2021-10-21 03:18:00,,0831.0,4.99,0.00,27.2,26.5,00.0,36.3,29.0,12.5,0000.0,0004.07,0014.05,0003.22
2021-10-21 03:19:00,,0831.0,5.00,0.00,27.2,26.5,00.0,36.3,29.0,12.5,0000.0,0004.05,0014.62,0003.21
2021-10-21 03:20:00,,0831.0,5.01,0.00,27.2,26.5,00.0,36.3,29.0,12.5,0000.0,0004.08,0014.18,0003.21
2021-10-21 03:21:00,,0831.0,5.01,0.00,27.2,26.5,00.0,36.3,29.0,12.4,0000.0,0004.06,0012.58,0003.20
2021-10-21 03:22:00,,0831.1,4.99,0.00,27.2,26.5,00.0,36.3,29.0,12.5,0000.0,0004.03,0012.61,0003.18
2021-10-21 03:23:00,,0831.1,4.99,0.00,27.2,26.5,00.0,36.3,29.0,12.4,0000.0,0004.00,0011.94,0003.16
2021-10-21 03:24:00,,0831.1,5.00,0.00,27.2,26.5,00.0,36.3,29.0,12.5,0000.0,0004.00,0011.59,0003.15
2021-10-21 03:25:00,,0831.2,5.01,0.00,27.2,26.4,00.0,36.2,29.0,12.5,0000.0,0003.98,0010.91,0003.13
2021-10-21 03:26:00,,0831.2,5.01,0.00,27.2,26.5,00.0,36.3,29.0,12.5,0000.0,0003.93,0010.75,0003.12
2021-10-21 03:27:00,,0831.2,4.99,0.00,27.2,26.4,00.0,36.3,29.0,12.5,0000.0,0003.89,0010.91,0003.09
2021-10-21 03:28:00,,0831.2,5.00,0.00,27.2,26.4,00.0,36.3,29.0,12.5,0000.0,0003.92,0011.77,0003.07
2021-10-21 03:29:00,,0831.2,4.99,0.00,27.2,26.4,00.0,36.2,29.0,12.5,0000.0,0003.90,0011.76,0003.04
2021-10-21 03:30:00,,0831.2,5.01,0.00,27.2,26.5,00.0,36.3,29.0,12.5,0000.0,0003.89,0010.92,0003.02
2021-10-21 03:31:00,,0831.2,5.01,0.00,27.2,26.4,00.0,36.3,29.0,12.5,0000.0,0003.90,0011.03,0003.02
2021-10-21 03:32:00,,0831.2,5.00,0.00,27.2,26.4,00.0,36.2,29.0,12.5,0000.0,0003.89,0010.71,0003.01
2021-10-21 03:33:00,,0831.2,4.99,0.00,27.2,26.4,00.0,36.2,29.0,12.5,0000.0,0003.89,0010.58,0003.02
2021-10-21 03:34:00,,0831.2,5.00,0.00,27.2,26.4,00.0,36.2,29.0,12.5,0000.0,0003.92,0011.47,0003.04
2021-10-21 03:35:00,,0831.2,5.00,0.00,27.2,26.4,00.0,36.2,29.0,12.5,0000.0,0003.93,0011.92,0003.04
2021-10-21 03:36:00,,0831.2,5.00,0.00,27.2,26.4,00.0,36.2,28.9,12.5,0000.0,0003.94,0012.15,0003.04
2021-10-21 03:37:00,,0831.2,5.01,0.00,27.2,26.4,00.0,36.2,28.9,12.5,0000.0,0003.97,0012.56,0003.04
2021-10-21 03:38:00,,0831.2,4.99,0.00,27.2,26.4,00.0,36.2,28.9,12.5,0000.0,0004.01,0012.25,0003.02
2021-10-21 03:39:00,,0831.2,5.00,0.00,27.2,26.4,00.0,36.2,28.9,12.5,0000.0,0004.03,0012.28,0003.02
2021-10-21 03:40:00,,0831.3,5.01,0.00,27.1,26.4,00.0,36.2,28.9,12.5,0000.0,0004.02,0012.48,0003.01
2021-10-21 03:41:00,,0831.3,4.99,0.00,27.1,26.4,00.0,36.2,28.9,12.4,0000.0,0003.98,0012.10,0002.99
2021-10-21 03:42:00,,0831.3,4.99,0.00,27.1,26.4,00.0,36.2,28.9,12.3,0000.0,0003.91,0011.54,0002.95
2021-10-21 03:43:00,,0831.3,5.01,0.00,27.1,26.4,00.0,36.2,28.9,12.3,0000.0,0003.95,0012.12,0002.95
2021-10-21 03:44:00,,0831.3,5.01,0.00,27.1,26.4,00.0,36.2,28.9,12.4,0000.0,0003.96,0012.31,0002.93
2021-10-21 03:45:00,,0831.3,4.99,0.00,27.1,26.4,00.0,36.2,28.9,12.4,0000.0,0003.93,0011.64,0002.90
2021-10-21 03:46:00,,0831.3,4.99,0.00,27.1,26.4,00.0,36.2,28.9,12.4,0000.0,0003.93,0011.34,0002.88
2021-10-21 03:47:00,,0831.3,5.02,0.00,27.1,26.4,00.0,36.2,28.9,12.4,0000.0,0003.90,0011.41,0002.87
2021-10-21 03:48:00,,0831.4,5.00,0.00,27.1,26.4,00.0,36.2,28.9,12.4,0000.0,0003.90,0011.39,0002.89
2021-10-21 03:49:00,,0831.4,4.99,0.00,27.1,26.4,00.0,36.2,28.9,12.4,0000.0,0003.87,0012.28,0002.90
2021-10-21 03:50:00,,0831.4,4.99,0.00,27.1,26.4,00.0,36.2,28.9,12.4,0000.0,0003.85,0011.63,0002.90
2021-10-21 03:51:00,,0831.4,5.01,0.00,27.1,26.4,00.0,36.2,28.9,12.4,0000.0,0003.83,0012.08,0002.89
2021-10-21 03:52:00,,0831.4,5.00,0.00,27.1,26.4,00.0,36.2,28.9,12.4,0000.0,0003.84,0013.22,0002.88
2021-10-21 03:53:00,,0831.3,5.00,0.00,27.1,26.4,00.0,36.2,28.9,12.4,0000.0,0003.84,0013.19,0002.89
2021-10-21 03:54:00,,0831.4,5.00,0.00,27.1,26.4,00.0,36.2,28.9,12.4,0000.0,0003.78,0012.77,0002.87
2021-10-21 03:55:00,,0831.4,5.00,0.00,27.1,26.3,00.0,36.2,28.9,12.5,0000.0,0003.77,0012.66,0002.87
2021-10-21 03:56:00,,0831.4,4.99,0.00,27.1,26.3,00.0,36.2,28.9,12.4,0000.0,0003.77,0012.41,0002.87
2021-10-21 03:57:00,,0831.4,4.99,0.00,27.1,26.3,00.0,36.2,28.9,12.4,0000.0,0003.78,0012.54,0002.89
2021-10-21 03:58:00,,0831.4,5.01,0.00,27.1,26.3,00.0,36.2,28.9,12.5,0000.0,0003.81,0013.23,0002.87
2021-10-21 03:59:00,,0831.4,4.99,0.00,27.1,26.3,00.0,36.2,28.9,12.5,0000.0,0003.80,0013.59,0002.85
